Lorain / Elyria, OH

9:05 PM EDT on May 23, 2017 (GMT -0400)
Lorain County Regional

Weather History for KLPR - November, 2013

Change the Weather History Date:

Sunday, November 3, 2013

  Actual Average (KCLE) Record (KCLE)
Temperature  
Mean Temperature 43 °F -  
Max Temperature 50 °F 55 °F 79 °F (1961)
Min Temperature 35 °F 39 °F 19 °F (1951)
Degree Days  
Heating Degree Days 22    
Moisture  
Dew Point 33 °F    
Average Humidity 68    
Maximum Humidity 83    
Minimum Humidity 52    
Precipitation  
Precipitation 0.00 in - - ()
Sea Level Pressure  
Sea Level Pressure 30.30 in    
Wind  
Wind Speed 7 mph (NE)    
Max Wind Speed 12 mph    
Max Gust Speed -    
Visibility 10 miles    
Events Rain    
Averages and records for this station are not official NWS values.
T = Trace of Precipitation, MM = Missing Value Source: NWS Daily Summary

Daily Weather History Graph

Daily Weather History Graph

Search for Another Location

Airport or City:

Trip Planner

Search our weather history database for the weather conditions in past years. The results will help you decide how hot, cold, wet, or windy it might be!

Date:

Astronomy

Nov. 03, 2013 Rise Set
Actual Time 7:02 AM EST 5:21 PM EST
Civil Twilight 6:33 AM EST 5:49 PM EST
Nautical Twilight 6:01 AM EST 6:22 PM EST
Astronomical Twilight 5:28 AM EST 6:54 PM EST
Moon 7:05 AM EST (11/3) 5:34 PM EST (11/3)
Length of Visible Light 11h 16m
Length of Day
10h 18m
New Moon, 0% of the Moon is Illuminated
Nov 3
New Moon
Nov 10
First Quarter
Nov 17
Full
Nov 25
Last Quarter
Dec 2
New

Hourly Weather History & Observations

Time (EST) Temp. Windchill Dew Point Humidity Pressure Visibility Wind Dir Wind Speed Gust Speed Precip Events Conditions
12:39 AM 44.6 °F 39.2 °F 35.6 °F 71% 30.06 in 10.0 mi North 10.4 mph - 0.00 in Rain Light Rain
12:53 AM 44.1 °F 39.0 °F 36.0 °F 73% 30.07 in 10.0 mi North 9.2 mph - 0.00 in   Overcast
1:53 AM 44.1 °F 39.0 °F 36.0 °F 73% 30.09 in 10.0 mi North 9.2 mph - N/A   Overcast
1:53 AM 42.1 °F 39.2 °F 35.1 °F 76% 30.11 in 10.0 mi NNW 4.6 mph - N/A   Mostly Cloudy
2:53 AM 39.9 °F 37.8 °F 35.1 °F 83% 30.14 in 10.0 mi NNW 3.5 mph - N/A   Mostly Cloudy
3:53 AM 43.0 °F 39.5 °F 35.1 °F 74% 30.16 in 10.0 mi NNE 5.8 mph - N/A   Overcast
4:53 AM 41.0 °F 39.0 °F 34.0 °F 76% 30.18 in 10.0 mi NNE 3.5 mph - N/A   Mostly Cloudy
5:53 AM 43.0 °F 39.5 °F 34.0 °F 71% 30.22 in 10.0 mi NE 5.8 mph - N/A   Overcast
6:53 AM 41.0 °F - 32.0 °F 70% 30.25 in 10.0 mi Calm Calm - N/A   Partly Cloudy
7:53 AM 42.1 °F - 36.0 °F 79% 30.29 in 10.0 mi Calm Calm - N/A   Overcast
8:53 AM 45.0 °F 41.2 °F 35.1 °F 68% 30.32 in 10.0 mi NNE 6.9 mph - N/A   Mostly Cloudy
9:53 AM 46.9 °F - 32.0 °F 56% 30.34 in 10.0 mi NE 6.9 mph - N/A   Partly Cloudy
10:53 AM 48.0 °F - 32.0 °F 54% 30.34 in 10.0 mi ENE 8.1 mph - N/A   Partly Cloudy
11:53 AM 46.9 °F - 34.0 °F 61% 30.36 in 10.0 mi ENE 11.5 mph - N/A   Mostly Cloudy
12:53 PM 46.9 °F - 33.1 °F 59% 30.36 in 10.0 mi ENE 6.9 mph - N/A   Scattered Clouds
1:53 PM 50.0 °F - 33.1 °F 52% 30.36 in 10.0 mi East 9.2 mph - N/A   Scattered Clouds
2:53 PM 48.9 °F - 33.1 °F 54% 30.37 in 10.0 mi ENE 10.4 mph - N/A   Clear
3:53 PM 46.0 °F 40.6 °F 32.0 °F 58% 30.38 in 10.0 mi ENE 11.5 mph - N/A   Clear
4:53 PM 44.1 °F 39.5 °F 32.0 °F 63% 30.39 in 10.0 mi ENE 8.1 mph - N/A   Clear
5:53 PM 41.0 °F 35.8 °F 32.0 °F 70% 30.41 in 10.0 mi ENE 8.1 mph - N/A   Clear
6:53 PM 39.0 °F 34.0 °F 30.9 °F 73% 30.43 in 10.0 mi East 6.9 mph - N/A   Clear
7:53 PM 37.0 °F 31.6 °F 30.0 °F 76% 30.45 in 10.0 mi East 6.9 mph - N/A   Clear
8:53 PM 37.0 °F 31.6 °F 28.0 °F 70% 30.45 in 10.0 mi ESE 6.9 mph - N/A   Clear
9:53 PM 36.0 °F 30.3 °F 28.0 °F 73% 30.46 in 10.0 mi ESE 6.9 mph - N/A   Clear
10:53 PM 35.1 °F 29.3 °F 27.0 °F 72% 30.47 in 10.0 mi ESE 6.9 mph - N/A   Clear